Theta_e
352 350 348 347 346 347 346 346 347 349 349 346 342 339 336 342 346 349 353 352 352 350 346 343 341 339 338 337 333 329 326 324 323 321 320 320 321 321 322 323 324 324 323
354 352 351 349 348 348 346 346 347 348 348 344 342 340 339 340 347 350 352 353 352 349 347 344 341 339 339 337 332 328 324 322 321 320 320 320 320 321 322 323 324 324 323
358 356 351 350 350 349 349 348 348 350 347 345 344 342 342 342 344 351 354 356 349 349 347 345 342 339 340 337 331 326 322 321 320 320 320 320 319 320 322 323 323 322 323
359 356 353 351 352 351 349 346 347 345 344 343 342 342 343 345 349 352 354 354 352 346 345 345 343 339 340 335 330 324 322 320 319 320 319 319 319 321 322 322 321 323 322
356 356 355 352 355 350 348 347 346 346 343 343 342 343 346 346 349 348 352 353 351 347 343 344 341 339 337 331 326 322 320 319 320 320 319 318 319 320 321 321 321 321 321
358 357 354 355 351 350 348 348 350 347 345 343 342 341 345 348 349 349 351 350 348 346 345 342 339 335 331 327 321 319 319 320 320 318 318 318 319 320 320 319 319 320 320
358 358 352 356 354 346 351 351 349 349 345 347 344 341 347 350 350 350 351 348 345 343 342 340 335 331 326 321 318 317 318 319 318 318 317 317 318 319 320 319 319 319 320
358 356 351 355 356 351 346 346 351 345 345 347 341 339 335 337 336 336 340 343 340 341 337 336 328 326 319 318 318 317 317 317 318 317 317 318 319 319 319 319 319 319 319
359 358 354 357 357 353 348 346 345 348 343 346 350 338 331 329 335 327 326 333 334 330 324 320 316 317 318 320 319 320 315 315 316 316 316 316 318 319 319 319 318 319 318
356 358 360 358 359 355 353 351 350 342 341 346 348 345 349 343 334 326 323 322 323 318 315 314 315 317 317 320 320 315 314 314 314 314 315 315 316 317 317 318 318 318 318
354 354 358 357 356 355 355 354 353 349 347 338 347 347 347 343 344 338 327 314 313 312 312 316 315 316 318 320 321 314 313 312 311 312 312 313 314 316 317 317 318 317 318
347 356 354 357 355 356 354 353 353 353 352 348 344 342 347 342 337 337 332 322 313 309 311 313 317 317 317 320 315 313 312 310 310 311 311 311 312 314 315 316 316 317 317
340 352 356 358 354 353 354 355 354 353 351 349 344 349 343 350 347 341 336 323 314 309 310 312 320 316 317 320 315 313 311 310 310 310 311 310 310 312 313 314 314 314 314
341 354 352 353 354 354 355 355 350 348 352 349 349 346 341 337 335 335 329 319 315 316 312 310 317 314 317 319 312 312 314 309 310 311 311 309 309 310 310 311 311 311 311
340 346 349 351 352 354 354 353 346 348 348 349 351 349 338 341 335 329 329 325 321 312 308 307 309 313 317 315 312 317 315 307 308 310 309 308 308 308 308 309 309 309 309
344 344 346 350 351 350 348 350 347 349 347 344 343 345 343 341 339 334 329 327 324 316 308 309 309 313 316 314 310 316 311 308 309 310 308 308 307 307 307 307 307 307 307
343 343 344 346 346 347 348 347 347 345 344 339 339 340 337 341 331 332 324 324 315 311 304 310 311 315 314 312 313 315 314 316 313 309 308 307 307 306 306 306 306 305 305
344 344 343 343 344 344 346 346 344 342 341 335 335 335 330 333 335 328 323 315 311 310 308 306 310 310 311 313 314 314 314 313 314 307 307 307 307 306 305 305 304 304 303
341 343 343 342 341 342 343 345 343 339 337 335 333 330 329 335 330 325 321 311 313 312 311 309 309 309 309 312 312 313 315 315 314 310 309 309 306 306 305 304 304 303 302
341 341 341 340 340 341 342 343 341 338 335 334 329 330 330 332 327 324 312 312 311 309 311 309 307 307 309 312 313 310 309 312 311 312 309 309 310 308 306 305 304 303 301
338 335 337 339 340 341 340 341 335 331 333 326 326 325 326 328 320 315 310 309 310 311 307 306 306 307 307 308 309 310 309 312 311 311 310 310 310 310 308 305 303 302 300
336 334 332 333 337 337 314 315 330 328 328 323 318 318 314 312 310 309 310 309 311 308 310 308 307 307 310 309 310 310 311 309 305 312 310 306 309 307 307 305 300 300 299
334 335 334 335 335 332 307 307 313 325 317 315 312 310 307 307 305 305 306 307 307 307 312 317 312 310 309 311 312 311 310 307 306 311 311 306 308 306 308 305 301 300 299
329 331 335 333 328 321 306 305 309 314 312 312 314 310 307 308 306 306 309 308 310 312 315 312 314 312 313 314 315 313 312 311 310 310 312 305 307 305 308 307 301 300 299
321 324 324 321 318 310 304 303 310 309 308 308 310 310 308 305 300 302 307 309 308 307 302 300 299 298 298 300 306 312 308 306 304 307 310 307 307 305 307 306 307 301 300
313 315 314 313 308 307 303 301 307 308 306 304 304 305 302 303 298 301 309 310 306 305 306 308 308 306 309 308 308 315 311 307 305 304 310 307 306 306 303 307 306 307 305
Wind_Speed
8 9 9 9 9 10 10 10 9 7 8 8 7 8 8 7 5 4 7 16 13 14 15 13 12 11 9 11 8 7 7 8 10 11 13 15 17 19 19 20 20 20 17
9 8 10 10 10 10 10 10 9 8 8 8 8 8 8 7 7 5 5 11 11 14 14 13 12 11 10 11 8 7 5 6 8 10 12 15 17 19 20 21 20 20 17
12 12 10 10 10 9 12 10 9 8 8 7 8 7 8 9 7 6 6 8 12 13 14 13 12 10 12 11 9 5 4 6 8 10 12 15 18 19 20 21 19 18 18
12 12 11 10 9 9 10 10 10 10 9 9 8 8 8 6 6 6 7 8 8 9 11 13 12 10 13 12 9 4 5 7 8 10 13 16 19 20 21 20 19 20 17
14 12 11 10 10 9 10 10 10 9 9 8 8 7 6 6 6 7 6 8 10 9 6 10 11 13 14 10 7 6 7 7 9 12 14 17 19 20 20 20 18 19 19
15 13 11 12 6 9 10 10 10 10 9 9 9 8 6 5 5 5 5 6 9 10 9 10 10 10 12 9 6 7 7 9 10 13 15 18 20 20 20 19 19 19 18
14 12 11 12 11 8 9 12 11 12 10 9 8 7 6 1 2 3 5 5 7 6 6 8 6 6 7 10 8 7 9 10 12 14 16 17 18 18 18 18 18 18 18
15 11 11 12 14 12 6 6 14 12 12 11 11 10 8 5 4 6 5 5 7 4 5 6 7 8 6 4 5 8 9 11 13 14 16 16 18 18 19 19 19 19 19
14 14 15 14 13 12 12 10 8 11 10 11 15 9 9 8 11 3 6 4 5 7 8 8 8 7 5 2 4 11 11 11 13 14 15 18 20 20 20 21 20 20 19
17 17 17 16 13 12 13 13 12 11 10 7 10 13 10 4 8 6 4 6 6 7 7 7 6 5 3 3 11 12 9 11 12 14 16 18 19 19 19 21 21 21 21
16 17 17 16 12 12 12 13 13 14 11 8 8 10 12 8 7 6 10 5 5 5 6 4 3 4 2 2 7 9 9 10 11 13 16 19 21 20 19 21 23 22 22
12 16 17 15 11 13 12 11 11 13 12 12 8 10 6 11 10 8 7 10 8 3 5 4 4 3 2 6 10 9 8 9 9 13 15 18 20 20 20 22 22 21 21
12 12 15 14 11 11 13 11 11 12 12 13 11 10 8 11 4 6 8 10 5 4 2 2 1 2 2 3 7 2 8 7 9 12 13 17 19 19 20 21 21 21 21
12 11 13 15 16 15 14 13 10 10 11 12 15 10 8 5 6 7 4 10 6 4 4 6 2 2 2 3 7 6 10 5 8 11 14 17 18 18 19 21 21 20 21
13 13 15 17 18 18 17 14 11 12 10 11 13 14 7 8 8 10 10 7 7 6 3 2 4 3 4 5 4 3 5 5 6 10 13 16 18 18 19 20 20 20 21
13 14 15 16 17 16 16 14 10 13 13 9 9 12 11 11 12 11 10 8 5 5 5 2 5 8 5 5 4 1 5 5 7 10 11 14 17 18 19 21 20 21 20
14 16 16 17 17 15 14 14 14 14 14 10 11 12 11 13 10 11 9 10 8 7 7 5 5 6 5 3 5 4 3 1 10 11 7 11 14 17 18 20 21 22 22
14 16 17 17 16 14 14 15 16 13 13 12 11 10 11 11 15 15 12 13 10 8 8 12 9 7 7 5 5 4 1 4 4 7 4 4 12 14 17 19 20 22 21
12 13 16 16 16 15 15 15 15 14 13 14 14 12 13 16 15 13 14 11 10 8 10 9 10 8 7 7 6 4 2 3 3 8 9 11 11 12 17 20 22 22 21
13 13 13 14 14 13 15 15 14 15 14 14 11 13 16 18 19 19 12 13 12 12 12 10 10 9 7 5 4 6 5 4 5 4 7 3 7 11 15 19 23 23 22
10 11 11 10 12 12 9 10 11 14 16 13 10 10 11 16 19 16 13 13 14 13 11 11 10 9 8 7 5 3 3 4 7 5 6 6 7 8 11 16 19 23 24
9 9 10 11 11 7 9 12 16 13 15 13 12 9 13 20 18 18 17 14 10 17 13 11 9 10 9 7 4 3 3 2 5 4 4 5 6 7 8 11 16 20 24
7 9 10 9 9 9 12 9 10 10 12 13 15 15 12 11 20 17 19 18 16 17 11 10 13 11 10 8 8 6 7 8 6 3 5 7 7 8 6 10 14 17 20
6 7 7 6 6 5 14 14 15 15 13 14 15 17 18 18 18 22 19 16 19 15 13 11 12 12 10 8 7 8 7 6 7 5 6 7 6 7 7 8 10 14 16
2 1 2 4 7 9 20 19 16 12 14 14 12 15 18 18 18 26 21 21 20 16 19 21 19 14 11 9 3 3 5 6 8 7 8 7 4 6 8 9 9 11 13
5 5 8 7 9 11 8 11 17 11 16 13 11 14 21 22 9 17 21 21 21 18 17 17 14 13 12 7 9 5 4 6 7 8 7 6 8 5 8 9 10 10 9
Wind_Direction
219 215 218 221 213 216 208 220 228 194 210 217 224 227 235 231 257 262 145 165 171 163 163 166 160 152 143 128 108 87 61 41 28 19 8 357 351 347 342 344 339 334 332
211 227 219 215 223 218 219 217 210 205 218 218 213 228 234 236 223 229 189 156 169 163 166 168 165 160 150 137 116 95 64 32 17 12 357 350 348 344 344 340 339 334 332
221 230 225 220 213 219 227 217 215 211 219 211 225 213 230 227 228 216 232 156 161 174 167 171 171 165 149 137 119 98 54 24 12 3 350 348 345 343 339 338 335 335 332
218 219 231 226 213 221 214 215 212 212 217 215 219 221 207 225 208 200 217 164 164 165 169 174 168 161 151 136 116 92 33 23 11 0 352 347 341 344 337 334 339 336 342
210 215 226 235 216 218 218 217 214 218 211 225 216 219 219 222 198 199 180 170 160 157 170 161 146 141 130 121 105 54 33 27 10 360 356 347 345 338 336 337 336 334 336
213 205 222 222 228 224 217 215 217 208 228 209 219 188 222 208 206 193 163 167 163 155 155 158 145 129 126 113 80 57 37 24 12 3 356 350 340 339 341 341 341 340 340
225 202 213 218 213 226 233 208 210 218 206 215 208 184 131 316 30 107 158 160 129 149 142 137 132 135 122 94 68 55 38 24 15 5 360 355 346 341 342 344 347 342 342
210 202 201 221 212 211 218 242 226 212 212 194 211 194 163 158 72 43 24 94 128 126 107 105 122 103 117 95 106 74 40 26 17 7 9 351 358 360 1 1 358 352 350
205 205 202 223 210 217 214 208 213 240 219 201 214 213 209 219 141 106 37 62 121 112 101 97 101 102 110 155 190 101 49 30 23 18 6 358 352 353 353 351 351 352 348
226 216 216 215 214 208 218 217 206 198 225 250 202 230 246 306 176 147 109 54 71 90 106 113 101 99 130 125 91 65 50 39 33 20 9 2 354 351 349 349 351 355 350
222 228 220 222 213 219 210 217 211 207 204 206 244 231 218 212 220 169 154 135 90 77 95 98 106 127 158 253 112 82 54 50 35 21 12 4 2 356 357 355 359 356 353
226 220 225 216 206 224 220 207 221 221 214 215 222 250 246 211 201 187 151 144 123 111 126 149 146 158 170 105 79 92 64 53 33 16 4 6 4 0 358 1 360 357 354
239 218 212 215 199 206 225 220 214 219 221 220 214 226 242 239 227 184 158 137 130 136 142 136 248 175 186 92 94 68 86 50 26 9 2 6 5 1 7 360 3 0 358
244 226 210 212 205 199 217 217 223 225 221 219 218 214 212 140 116 96 92 126 111 147 144 152 220 172 186 80 73 238 116 52 28 6 15 11 5 9 7 5 5 2 5
258 239 218 212 209 208 204 201 217 218 220 217 212 204 172 168 134 130 144 148 131 158 164 180 156 222 174 162 54 62 84 77 39 19 28 18 19 14 10 8 6 6 9
248 245 226 217 212 203 197 195 202 217 211 208 202 202 194 178 164 144 140 130 127 134 132 141 193 173 171 143 128 168 93 199 101 50 31 27 25 18 13 12 8 10 8
243 230 226 218 211 205 196 198 195 207 212 192 194 192 179 168 150 137 126 123 105 95 115 131 154 154 157 156 142 135 158 324 114 65 34 31 31 25 18 15 15 15 9
249 231 219 212 209 204 202 206 199 199 197 182 181 178 154 158 151 143 143 125 129 118 127 147 157 152 162 145 140 125 234 71 42 100 83 64 44 26 20 24 23 19 14
236 238 217 208 205 205 212 207 207 200 179 179 174 166 165 158 149 138 128 126 125 137 125 142 150 149 151 154 140 136 133 141 110 166 172 106 75 51 36 30 27 23 18
234 222 214 217 221 213 218 205 205 190 178 171 173 177 170 163 147 142 134 134 131 129 132 146 144 138 155 160 167 153 138 68 31 50 101 81 90 90 57 30 29 23 22
227 212 210 221 222 215 214 197 175 181 176 162 154 179 165 144 137 141 140 138 145 136 135 144 140 147 141 169 137 126 96 117 107 349 60 35 37 28 40 40 28 26 26
231 230 233 227 224 220 188 170 172 172 163 146 139 124 120 123 119 116 124 131 138 131 149 144 144 137 115 121 133 113 123 76 56 56 343 56 56 50 50 44 38 35 30
233 232 231 226 211 205 157 158 158 152 139 137 139 132 121 120 116 114 99 88 81 71 88 118 123 121 127 108 118 114 76 76 45 26 297 80 58 49 47 69 51 43 38
233 232 233 192 178 136 131 136 139 131 129 133 142 135 130 138 132 128 121 114 105 96 103 109 108 109 116 112 98 96 111 142 105 62 336 71 47 64 70 93 79 54 52
102 175 105 140 120 130 140 140 123 119 118 125 126 129 130 128 137 124 126 116 105 93 74 77 82 81 72 48 339 241 141 89 75 53 36 61 57 63 58 61 75 93 71
80 75 71 74 101 122 98 110 123 128 133 112 105 115 120 120 136 132 119 118 116 120 117 114 113 111 100 70 19 76 80 65 80 75 16 39 52 27 71 57 50 53 53